Terminal Aerodrome Forecast
Issued by NWS

Home | Current Version | Previous Version | Graphics & Text | Print | Product List | Glossary On
Versions: 1 2 3 4 5 6 7 8 9 10 11 12 13 14 15 16 17 18 19 20 21 22 23 24 25 26 27 28 29 30 31 32 33
000
FTUS43 KLOT 011100
TAFDPA
TAF
KDPA 011120Z 0112/0212 VRB03KT P6SM FEW100 SCT250
     FM011500 25006KT P6SM VCSH BKN050
     FM011900 24005KT P6SM VCTS BKN050CB
     FM012300 12006KT P6SM BKN050
     FM020100 VRB04KT P6SM SCT050=

USA.gov is the U.S. government's official web portal to all federal, state and local government web resources and services.